Location: Clifton Park
(41.4873°N, 81.8024°W)
Time: 18:23:03
(UTC+00:00)

Cosmos 2344 - Pass Details

Date: 21 January 2020
Orbit: 1255 x 2987 km, 63.3° (Epoch: 15 February)

Event Time Altitude Azimuth Distance (km) Brightness Sun altitude
Exits shadow 09:48:56 65° 178° (S) 1,363 3.6 -33.4°
Maximum altitude 09:50:01 76° 122° (ESE) 1,295 3.5 -33.2°
Drops below altitude 10° 09:57:53 10° 38° (NE) 3,434 6.2 -31.7°
Sets 10:00:56 0° 37° (NE) 4,546 6.9 -31.1°
